Tampa Macdill AFB, FL

4:52 PM EDT on April 20, 2018 (GMT -0400)
MacDill Air Force Base

Weather History for KMCF - April, 2013

Change the Weather History Date:

Friday, April 19, 2013

  Actual Average Record
Temperature  
Mean Temperature 79 °F -  
Max Temperature 87 °F 79 °F 89 °F (2015)
Min Temperature 71 °F 62 °F 50 °F (2001)
Cooling Degree Days 14    
Growing Degree Days 29 (Base 50)    
Moisture  
Dew Point 74 °F    
Average Humidity 89    
Maximum Humidity 100    
Minimum Humidity 58    
Precipitation  
Precipitation 0.17 in - - ()
Sea Level Pressure  
Sea Level Pressure 30.00 in    
Wind  
Wind Speed 10 mph (SSE)    
Max Wind Speed 23 mph    
Max Gust Speed 29 mph    
Visibility 9 miles    
Events Rain    
Averages and records for this station are not official NWS values.
T = Trace of Precipitation, MM = Missing Value Source: NWS Daily Summary

Daily Weather History Graph

Daily Weather History Graph

Search for Another Location

Airport or City:

Astronomy

Apr. 19, 2013 Rise Set
Actual Time 7:01 AM EDT 7:57 PM EDT
Civil Twilight 6:36 AM EDT 8:21 PM EDT
Nautical Twilight 6:08 AM EDT 8:50 PM EDT
Astronomical Twilight 5:39 AM EDT 9:19 PM EDT
Moon 2:11 PM EDT (4/19) 2:43 AM EDT (4/19)
Length of Visible Light 13h 44m
Length of Day
12h 56m
First Quarter, 61% of the Moon is Illuminated
Apr 19
First Quarter
Apr 25
Full
May 2
Last Quarter
May 9
New
May 18
First Quarter

Hourly Weather History & Observations

Time (EDT) Temp. Heat Index Dew Point Humidity Pressure Visibility Wind Dir Wind Speed Gust Speed Precip Events Conditions
12:10 AM 77.0 °F - 75.2 °F 94% 30.01 in 10.0 mi ESE 5.8 mph - N/A   Mostly Cloudy
12:58 AM 74.5 °F - 73.8 °F 98% 30.02 in 10.0 mi East 10.4 mph - 0.00 in   Mostly Cloudy
1:02 AM 73.4 °F - 73.4 °F 100% 30.01 in 10.0 mi East 8.1 mph - N/A Rain Light Rain
1:17 AM 73.4 °F - 73.4 °F 100% 30.01 in 10.0 mi East 10.4 mph - N/A   Mostly Cloudy
1:25 AM 73.4 °F - 73.4 °F 100% 30.01 in 5.0 mi East 10.4 mph - N/A Rain Light Rain
1:35 AM 73.4 °F - 73.4 °F 100% 30.01 in 2.5 mi SE 10.4 mph - N/A Rain Heavy Rain
1:50 AM 71.6 °F - 71.6 °F 100% 30.00 in 4.0 mi SE 3.5 mph - N/A Rain Light Rain
1:56 AM 71.6 °F - 71.6 °F 100% 30.00 in 10.0 mi SE 4.6 mph - N/A   Mostly Cloudy
1:58 AM 71.6 °F - 71.6 °F 100% 30.01 in 10.0 mi SE 4.6 mph - 0.16 in   Mostly Cloudy
2:03 AM 73.4 °F - 73.4 °F 100% 30.00 in 10.0 mi ESE 4.6 mph - N/A   Mostly Cloudy
2:58 AM 72.1 °F - 72.0 °F 99% 30.00 in 10.0 mi East 6.9 mph - N/A   Partly Cloudy
3:58 AM 71.4 °F - 71.4 °F 100% 29.99 in 10.0 mi ESE 6.9 mph - N/A   Clear
4:58 AM 72.0 °F - 72.0 °F 100% 29.98 in 10.0 mi SE 9.2 mph - 0.01 in   Clear
5:58 AM 72.1 °F - 72.1 °F 100% 29.98 in 10.0 mi SE 10.4 mph - N/A   Clear
6:58 AM 72.5 °F - 72.5 °F 100% 30.00 in 10.0 mi SE 9.2 mph - N/A   Clear
7:58 AM 73.8 °F - 73.8 °F 100% 30.01 in 10.0 mi SE 10.4 mph - N/A   Clear
8:58 AM 76.1 °F - 74.7 °F 95% 30.02 in 10.0 mi SSE 12.7 mph - N/A   Clear
9:58 AM 78.8 °F - 75.6 °F 90% 30.03 in 10.0 mi SSE 16.1 mph - N/A   Clear
10:58 AM 82.2 °F 89.6 °F 75.9 °F 81% 30.03 in 10.0 mi SSE 18.4 mph - N/A   Partly Cloudy
11:58 AM 86.0 °F 95.1 °F 75.2 °F 70% - 10.0 mi South 12.7 mph 23.0 mph N/A   Partly Cloudy
12:03 PM 86.0 °F 95.1 °F 75.2 °F 70% 30.02 in 10.0 mi South 12.7 mph 23.0 mph N/A   Partly Cloudy
12:58 PM 87.8 °F 93.8 °F 71.6 °F 58% 30.03 in 10.0 mi SSW 20.7 mph - N/A   Partly Cloudy
1:58 PM 86.9 °F 95.4 °F 74.3 °F 66% 30.01 in 10.0 mi SSW 23.0 mph - N/A   Partly Cloudy
2:58 PM 87.1 °F 95.9 °F 74.3 °F 66% 29.98 in 10.0 mi SSW 21.9 mph - N/A   Partly Cloudy
3:58 PM 86.2 °F 94.2 °F 74.1 °F 67% 29.96 in 10.0 mi SSW 21.9 mph 28.8 mph N/A   Partly Cloudy
4:58 PM 84.9 °F 93.3 °F 75.0 °F 72% 29.96 in 10.0 mi SSW 19.6 mph 26.5 mph N/A   Clear
5:58 PM 84.2 °F 93.0 °F 75.7 °F 76% 29.96 in 10.0 mi SSW 17.3 mph - N/A   Clear
6:58 PM 81.1 °F 86.8 °F 74.3 °F 80% 29.96 in 10.0 mi SW 18.4 mph - N/A   Clear
7:58 PM 78.1 °F - 74.7 °F 89% 29.97 in 10.0 mi SW 15.0 mph - N/A   Clear
8:58 PM 77.2 °F - 74.7 °F 92% 30.00 in 10.0 mi SSW 15.0 mph - N/A   Clear
9:58 PM 76.8 °F - 75.0 °F 94% 30.02 in 10.0 mi SSW 13.8 mph - N/A   Clear
10:58 PM 76.8 °F - 75.0 °F 94% 30.03 in 10.0 mi SSW 11.5 mph - N/A   Mostly Cloudy
11:58 PM 76.5 °F - 75.4 °F 96% 30.02 in 10.0 mi South 8.1 mph - N/A   Clear